Location: Camps Bay
(33.9517°S, 18.3844°E)
Time: 23:24:25
(UTC+00:00)

CZ-4B R/B - Pass Details

Date: 18 January 2020
Orbit: 487 x 652 km, 97.9° (Epoch: 28 February)

Event Time Altitude Azimuth Distance (km) Brightness Sun altitude
Rises 03:04:32 0° 0° (N) 2,699 6.0 -9.6°
Reaches altitude 10° 03:06:44 10° 354° (N) 1,789 5.1 -9.3°
Maximum altitude 03:10:26 45° 280° (W) 723 3.0 -8.6°
Drops below altitude 10° 03:14:02 10° 206° (SSW) 1,743 5.5 -8.0°
Sets 03:16:10 0° 199° (SSW) 2,621 6.4 -7.6°
